When you browse on this site, cookies collect data to enhance your experience and personalize the content and advertising you see.
Visit our Privacy Policy to learn more. By continuing to use the site, you agree to this use of cookies and data.
  • In Czech Republic
  • List of Countries
  • For 7 days
  • Water Temperature
  • Weather Map
  • Weather Widgets
  • user-avatar
    Login

    Hourly Weather Munich

    Today, 27 February, Thursday

    Time Temperature Precipitation Wind Pressure Humidity
    00:00 -3°C° 0.1 mm 6 mps 710 mmHg 86%
    01:00 -3°C° 0 mm 6 mps 710 mmHg 83%
    02:00 -3°C° 0 mm 6 mps 710 mmHg 84%
    03:00 -4°C° 0 mm 6 mps 710 mmHg 85%
    04:00 -4°C° 0 mm 5 mps 710 mmHg 86%
    05:00 -4°C° 0 mm 5 mps 711 mmHg 86%
    06:00 -4°C° 0 mm 5 mps 711 mmHg 86%
    07:00 -3°C° 0 mm 4 mps 711 mmHg 85%
    08:00 -2°C° 0 mm 4 mps 711 mmHg 78%
    09:00 -1°C° 0 mm 4 mps 710 mmHg 72%
    10:00 +1°C° 0 mm 5 mps 710 mmHg 65%
    11:00 +1°C° 0 mm 4 mps 709 mmHg 60%
    12:00 +3°C° 0 mm 3 mps 707 mmHg 55%
    13:00 +4°C° 0 mm 3 mps 706 mmHg 51%
    14:00 +3°C° 0.2 mm 3 mps 705 mmHg 55%
    15:00 +3°C° 0.2 mm 3 mps 704 mmHg 59%
    16:00 +2°C° 0.2 mm 3 mps 702 mmHg 64%
    17:00 +2°C° 0.6 mm 3 mps 701 mmHg 72%
    18:00 0°C° 0.6 mm 4 mps 700 mmHg 79%
    19:00 -1°C° 0.6 mm 4 mps 699 mmHg 87%
    20:00 -2°C° 0.9 mm 7 mps 700 mmHg 87%
    21:00 -3°C° 0.9 mm 11 mps 701 mmHg 86%
    22:00 -4°C° 0.9 mm 14 mps 701 mmHg 86%
    23:00 -4°C° 0.6 mm 13 mps 703 mmHg 88%

    Tomorrow, 28 February, Friday

    Time Temperature Precipitation Wind Pressure Humidity
    00:00 -5°C° 0.6 mm 13 mps 705 mmHg 90%
    01:00 -5°C° 0.6 mm 12 mps 706 mmHg 92%
    02:00 -4°C° 0.4 mm 11 mps 708 mmHg 92%
    03:00 -4°C° 0.4 mm 10 mps 709 mmHg 91%
    04:00 -4°C° 0.4 mm 9 mps 711 mmHg 91%
    05:00 -4°C° 0.1 mm 9 mps 712 mmHg 89%
    06:00 -5°C° 0.1 mm 9 mps 713 mmHg 88%
    07:00 -5°C° 0.1 mm 8 mps 715 mmHg 86%
    08:00 -4°C° 0.1 mm 8 mps 715 mmHg 86%
    09:00 -4°C° 0.1 mm 8 mps 716 mmHg 85%
    10:00 -3°C° 0.1 mm 7 mps 717 mmHg 85%
    11:00 -2°C° 0.1 mm 7 mps 718 mmHg 81%
    12:00 -1°C° 0.1 mm 6 mps 718 mmHg 77%
    13:00 +1°C° 0.1 mm 6 mps 718 mmHg 73%
    14:00 +1°C° 0 mm 5 mps 718 mmHg 72%
    15:00 +2°C° 0 mm 3 mps 718 mmHg 72%
    16:00 +4°C° 0 mm 2 mps 717 mmHg 71%
    17:00 +2°C° 0 mm 2 mps 717 mmHg 74%
    18:00 +1°C° 0 mm 2 mps 717 mmHg 78%
    19:00 +1°C° 0 mm 1 mps 717 mmHg 81%
    20:00 -1°C° 0 mm 2 mps 716 mmHg 81%
    21:00 -2°C° 0 mm 2 mps 716 mmHg 81%
    22:00 -2°C° 0 mm 2 mps 716 mmHg 81%
    23:00 -1°C° 0 mm 2 mps 715 mmHg 78%

    Day after tomorrow, 29 February, Saturday

    Time Temperature Precipitation Wind Pressure Humidity
    00:00 -1°C° 0 mm 2 mps 715 mmHg 75%
    01:00 +1°C° 0 mm 2 mps 714 mmHg 72%
    02:00 +1°C° 0 mm 2 mps 714 mmHg 70%
    03:00 0°C° 0 mm 3 mps 713 mmHg 69%
    04:00 0°C° 0 mm 3 mps 712 mmHg 68%
    05:00 0°C° 0 mm 3 mps 712 mmHg 68%
    06:00 0°C° 0 mm 3 mps 711 mmHg 68%
    07:00 +1°C° 0 mm 3 mps 711 mmHg 68%
    08:00 +2°C° 0 mm 3 mps 710 mmHg 67%
    09:00 +4°C° 0 mm 2 mps 709 mmHg 67%
    10:00 +5°C° 0 mm 2 mps 708 mmHg 66%
    11:00 +5°C° 0 mm 3 mps 708 mmHg 65%
    12:00 +7°C° 0 mm 3 mps 707 mmHg 65%
    13:00 +7°C° 0 mm 4 mps 706 mmHg 64%
    14:00 +8°C° 0 mm 3 mps 706 mmHg 68%
    15:00 +8°C° 0 mm 3 mps 706 mmHg 71%
    16:00 +8°C° 0 mm 3 mps 705 mmHg 75%
    17:00 +7°C° 0 mm 3 mps 706 mmHg 76%
    18:00 +5°C° 0 mm 3 mps 706 mmHg 76%
    19:00 +4°C° 0 mm 3 mps 706 mmHg 77%
    20:00 +3°C° 0 mm 3 mps 707 mmHg 78%
    21:00 +3°C° 0 mm 3 mps 707 mmHg 79%
    22:00 +3°C° 0 mm 3 mps 708 mmHg 80%
    23:00 +2°C° 0.2 mm 3 mps 708 mmHg 83%

    1 March, Sunday

    Time Temperature Precipitation Wind Pressure Humidity
    00:00 +2°C° 0.2 mm 3 mps 708 mmHg 86%
    01:00 +1°C° 0.2 mm 4 mps 708 mmHg 89%
    02:00 +1°C° 0 mm 4 mps 708 mmHg 89%
    03:00 +1°C° 0 mm 4 mps 708 mmHg 90%
    04:00 +1°C° 0 mm 4 mps 708 mmHg 90%
    05:00 +1°C° 0 mm 3 mps 708 mmHg 88%
    06:00 +1°C° 0 mm 3 mps 708 mmHg 86%
    07:00 +1°C° 0 mm 3 mps 708 mmHg 84%
    08:00 +2°C° 0 mm 3 mps 708 mmHg 81%
    09:00 +3°C° 0 mm 3 mps 708 mmHg 78%
    10:00 +4°C° 0 mm 3 mps 708 mmHg 75%
    11:00 +5°C° 0 mm 3 mps 707 mmHg 74%
    12:00 +7°C° 0 mm 3 mps 707 mmHg 72%
    13:00 +7°C° 0 mm 3 mps 707 mmHg 70%
    14:00 +7°C° 0 mm 2 mps 706 mmHg 69%
    15:00 +8°C° 0 mm 2 mps 706 mmHg 68%
    16:00 +9°C° 0 mm 1 mps 705 mmHg 67%
    17:00 +7°C° 0 mm 1 mps 705 mmHg 73%
    18:00 +5°C° 0 mm 2 mps 704 mmHg 80%
    19:00 +4°C° 0 mm 2 mps 704 mmHg 86%
    20:00 +3°C° 0 mm 2 mps 704 mmHg 86%
    21:00 +3°C° 0 mm 2 mps 704 mmHg 87%
    22:00 +2°C° 0 mm 2 mps 703 mmHg 87%
    23:00 +1°C° 0.2 mm 4 mps 703 mmHg 88%

    2 March, Monday

    Time Temperature Precipitation Wind Pressure Humidity
    00:00 +1°C° 0.2 mm 5 mps 704 mmHg 88%
    01:00 +1°C° 0.2 mm 6 mps 704 mmHg 89%
    02:00 +1°C° 0.1 mm 5 mps 704 mmHg 88%
    03:00 +1°C° 0.1 mm 4 mps 704 mmHg 87%
    04:00 +2°C° 0.1 mm 3 mps 704 mmHg 85%
    05:00 +1°C° 0 mm 3 mps 705 mmHg 86%
    06:00 +2°C° 0 mm 2 mps 705 mmHg 87%
    07:00 +1°C° 0 mm 2 mps 705 mmHg 88%
    08:00 +3°C° 0 mm 2 mps 704 mmHg 83%
    09:00 +4°C° 0 mm 2 mps 704 mmHg 78%
    10:00 +5°C° 0 mm 2 mps 704 mmHg 73%
    11:00 +6°C° 0 mm 2 mps 703 mmHg 67%
    12:00 +8°C° 0 mm 1 mps 703 mmHg 61%
    13:00 +9°C° 0 mm 1 mps 703 mmHg 55%
    14:00 +9°C° 0 mm 1 mps 702 mmHg 56%
    15:00 +9°C° 0 mm 1 mps 702 mmHg 58%
    16:00 +9°C° 0 mm 1 mps 701 mmHg 59%
    17:00 +7°C° 0.4 mm 2 mps 702 mmHg 68%
    18:00 +4°C° 0.4 mm 3 mps 702 mmHg 77%
    19:00 +3°C° 0.4 mm 3 mps 703 mmHg 86%
    20:00 +1°C° 0.1 mm 4 mps 703 mmHg 86%
    21:00 +1°C° 0.1 mm 4 mps 704 mmHg 86%
    22:00 +1°C° 0.1 mm 5 mps 705 mmHg 85%
    23:00 +1°C° 0 mm 5 mps 705 mmHg 84%

    3 March, Tuesday

    Time Temperature Precipitation Wind Pressure Humidity
    00:00 0°C° 0 mm 5 mps 705 mmHg 82%
    01:00 0°C° 0 mm 5 mps 706 mmHg 81%
    02:00 0°C° 0 mm 4 mps 706 mmHg 83%
    03:00 -1°C° 0 mm 4 mps 706 mmHg 85%
    04:00 0°C° 0 mm 3 mps 706 mmHg 87%
    05:00 -1°C° 0 mm 3 mps 707 mmHg 89%
    06:00 -1°C° 0 mm 3 mps 707 mmHg 90%
    07:00 -1°C° 0 mm 3 mps 708 mmHg 91%
    08:00 0°C° 0 mm 3 mps 708 mmHg 87%
    09:00 +1°C° 0 mm 3 mps 709 mmHg 83%
    10:00 +2°C° 0 mm 3 mps 710 mmHg 78%
    11:00 +3°C° 0.1 mm 3 mps 710 mmHg 73%
    12:00 +4°C° 0.1 mm 3 mps 710 mmHg 68%
    13:00 +5°C° 0.1 mm 3 mps 710 mmHg 63%
    14:00 +5°C° 0.3 mm 3 mps 710 mmHg 63%
    15:00 +5°C° 0.3 mm 3 mps 710 mmHg 64%
    16:00 +5°C° 0.3 mm 3 mps 710 mmHg 64%
    17:00 +5°C° 0.3 mm 2 mps 710 mmHg 73%
    18:00 +3°C° 0.3 mm 2 mps 710 mmHg 81%
    19:00 +2°C° 0.3 mm 2 mps 711 mmHg 90%
    20:00 +2°C° 0 mm 2 mps 711 mmHg 91%
    21:00 +2°C° 0 mm 1 mps 711 mmHg 92%
    22:00 +2°C° 0 mm 1 mps 712 mmHg 93%
    23:00 +2°C° 0 mm 1 mps 711 mmHg 92%
    Show more